contact:dominique.lefevre@mio.osupytheas.fr, maurice.libes@osupytheas.fr, didier.mallarino@osupytheas.fr
Project:EMSO http://www.emso-fr.org/EMSO-France
Depth: 2436.0 m
Title:EMSO Ligure Ouest : Data MII capteur CSTAR
DateTime,Latitude,Longitude,Instrument_Serial,Reference_Counts,Signal_Counts,Corrected_Signal_raw_counts,Calculated_Beam_c_inverse_meters,Internal_thermistor_counts
DateTime,Latitude,Longitude,Instrument_Serial,Reference_Counts,Signal_Counts,Corrected_Signal_raw_counts,Calculated_Beam_c_inverse_meters,Internal_thermistor_counts
2017-09-29T12:41:37,42.805,6.029,CST-1368DR,11239,15430,15543,0.019,551
2017-09-29T12:44:42,42.805,6.029,CST-1368DR,11240,15430,15543,0.019,551
2017-09-29T12:47:47,42.805,6.029,CST-1368DR,11240,15432,15544,0.018,551
2017-09-29T12:50:52,42.805,6.029,CST-1368DR,11240,15432,15544,0.018,551
2017-09-29T12:53:57,42.805,6.029,CST-1368DR,11240,15427,15539,0.020,551
2017-09-29T12:57:02,42.805,6.029,CST-1368DR,11240,15424,15536,0.021,551
2017-09-29T13:00:07,42.805,6.029,CST-1368DR,11240,15436,15548,0.017,551
2017-09-29T13:03:12,42.805,6.029,CST-1368DR,11240,15433,15545,0.018,551
2017-09-29T13:06:16,42.805,6.029,CST-1368DR,11240,15431,15544,0.018,551
2017-09-29T13:09:21,42.805,6.029,CST-1368DR,11240,15433,15545,0.018,551
2017-09-29T13:12:26,42.805,6.029,CST-1368DR,11240,15433,15545,0.018,551
2017-09-29T13:15:31,42.805,6.029,CST-1368DR,11240,15427,15539,0.020,551
2017-09-29T13:18:36,42.805,6.029,CST-1368DR,11240,15433,15545,0.018,551
2017-09-29T13:21:41,42.805,6.029,CST-1368DR,11240,15432,15544,0.018,551
2017-09-29T13:24:46,42.805,6.029,CST-1368DR,11240,15431,15543,0.019,551
2017-09-29T13:27:51,42.805,6.029,CST-1368DR,11240,15434,15546,0.018,551
2017-09-29T13:30:56,42.805,6.029,CST-1368DR,11241,15434,15545,0.018,551
2017-09-29T13:34:01,42.805,6.029,CST-1368DR,11241,15433,15544,0.018,551
2017-09-29T13:37:05,42.805,6.029,CST-1368DR,11241,15432,15543,0.019,551
2017-09-29T13:40:10,42.805,6.029,CST-1368DR,11241,15433,15544,0.018,551
2017-09-29T13:43:15,42.805,6.029,CST-1368DR,11241,15432,15543,0.019,551
2017-09-29T13:46:20,42.805,6.029,CST-1368DR,11241,15432,15543,0.019,550
2017-09-29T13:49:25,42.805,6.029,CST-1368DR,11241,15429,15540,0.020,550
2017-09-29T13:52:30,42.805,6.029,CST-1368DR,11241,15431,15542,0.019,550
2017-09-29T13:55:35,42.805,6.029,CST-1368DR,11241,15428,15539,0.020,550
2017-09-29T13:58:40,42.805,6.029,CST-1368DR,11241,15431,15542,0.019,551
2017-09-29T14:01:45,42.805,6.029,CST-1368DR,11241,15433,15544,0.018,551
2017-09-29T14:04:49,42.805,6.029,CST-1368DR,11241,15430,15541,0.019,551
2017-09-29T14:07:54,42.805,6.029,CST-1368DR,11241,15429,15540,0.020,551
2017-09-29T14:10:59,42.805,6.029,CST-1368DR,11242,15433,15543,0.019,551
2017-09-29T14:14:04,42.805,6.029,CST-1368DR,11241,15429,15540,0.020,551
2017-09-29T14:17:09,42.805,6.029,CST-1368DR,11241,15427,15538,0.020,550
2017-09-29T14:20:14,42.805,6.029,CST-1368DR,11241,15423,15534,0.021,551
2017-09-29T14:23:19,42.805,6.029,CST-1368DR,11242,15432,15542,0.019,550
2017-09-29T14:26:24,42.805,6.029,CST-1368DR,11242,15433,15542,0.019,551
2017-09-29T14:29:29,42.805,6.029,CST-1368DR,11242,15432,15542,0.019,551
2017-09-29T14:32:33,42.805,6.029,CST-1368DR,11242,15433,15543,0.019,551
2017-09-29T14:35:38,42.805,6.029,CST-1368DR,11242,15433,15542,0.019,551
2017-09-29T14:38:43,42.805,6.029,CST-1368DR,11242,15432,15541,0.019,551
2017-09-29T14:41:48,42.805,6.029,CST-1368DR,11242,15434,15544,0.018,551
2017-09-29T14:44:53,42.805,6.029,CST-1368DR,11242,15434,15543,0.019,551
2017-09-29T14:47:58,42.805,6.029,CST-1368DR,11242,15430,15539,0.020,551
2017-09-29T14:51:03,42.805,6.029,CST-1368DR,11242,15434,15544,0.018,551
2017-09-29T14:54:08,42.805,6.029,CST-1368DR,11242,15434,15544,0.018,551
2017-09-29T14:57:13,42.805,6.029,CST-1368DR,11242,15424,15534,0.021,551
2017-09-29T15:00:17,42.805,6.029,CST-1368DR,11242,15434,15544,0.018,551
2017-09-29T15:03:22,42.805,6.029,CST-1368DR,11242,15433,15543,0.019,551
2017-09-29T15:06:27,42.805,6.029,CST-1368DR,11242,15434,15544,0.018,551
2017-09-29T15:09:32,42.805,6.029,CST-1368DR,11243,15432,15540,0.020,551
2017-09-29T15:12:37,42.805,6.029,CST-1368DR,11243,15434,15543,0.019,551
2017-09-29T15:15:42,42.805,6.029,CST-1368DR,11243,15435,15544,0.018,551
2017-09-29T15:18:47,42.805,6.029,CST-1368DR,11242,15436,15545,0.018,551
2017-09-29T15:21:52,42.805,6.029,CST-1368DR,11243,15434,15543,0.019,551
2017-09-29T15:24:57,42.805,6.029,CST-1368DR,11243,15433,15542,0.019,551
2017-09-29T15:28:02,42.805,6.029,CST-1368DR,11243,15431,15539,0.020,551
2017-09-29T15:31:06,42.805,6.029,CST-1368DR,11243,15433,15542,0.019,551
2017-09-29T15:34:11,42.805,6.029,CST-1368DR,11243,15434,15543,0.019,551
2017-09-29T15:37:16,42.805,6.029,CST-1368DR,11243,15436,15544,0.018,551
2017-09-29T15:40:21,42.805,6.029,CST-1368DR,11243,15433,15541,0.019,551
2017-09-29T15:43:26,42.805,6.029,CST-1368DR,11243,15430,15539,0.020,551
2017-09-29T15:46:31,42.805,6.029,CST-1368DR,11243,15433,15541,0.019,551
2017-09-29T15:49:36,42.805,6.029,CST-1368DR,11243,15431,15540,0.020,551
2017-09-29T15:52:41,42.805,6.029,CST-1368DR,11243,15436,15544,0.018,551
2017-09-29T15:55:46,42.805,6.029,CST-1368DR,11243,15433,15541,0.019,551
2017-09-29T15:58:50,42.805,6.029,CST-1368DR,11243,15434,15543,0.019,550
2017-09-29T16:01:55,42.805,6.029,CST-1368DR,11243,15435,15544,0.018,550
2017-09-29T16:05:00,42.805,6.029,CST-1368DR,11243,15434,15543,0.019,551
2017-09-29T16:08:05,42.805,6.029,CST-1368DR,11243,15437,15545,0.018,551
2017-09-29T16:11:10,42.805,6.029,CST-1368DR,11243,15431,15540,0.020,550
2017-09-29T16:14:15,42.805,6.029,CST-1368DR,11243,15436,15544,0.018,551
2017-09-29T16:17:20,42.805,6.029,CST-1368DR,11243,15435,15544,0.018,551
2017-09-29T16:20:25,42.805,6.029,CST-1368DR,11244,15435,15542,0.019,551
2017-09-29T16:23:30,42.805,6.029,CST-1368DR,11244,15436,15543,0.019,551
2017-09-29T16:26:34,42.805,6.029,CST-1368DR,11244,15435,15542,0.019,550
2017-09-29T16:29:39,42.805,6.029,CST-1368DR,11244,15434,15541,0.019,551
2017-09-29T16:32:44,42.805,6.029,CST-1368DR,11244,15434,15541,0.019,550
2017-09-29T16:35:49,42.805,6.029,CST-1368DR,11244,15437,15544,0.018,551
2017-09-29T16:38:54,42.805,6.029,CST-1368DR,11244,15432,15539,0.020,551
2017-09-29T16:41:59,42.805,6.029,CST-1368DR,11244,15435,15542,0.019,550
2017-09-29T16:45:04,42.805,6.029,CST-1368DR,11244,15429,15536,0.021,551
2017-09-29T16:48:09,42.805,6.029,CST-1368DR,11244,15435,15542,0.019,551
2017-09-29T16:51:14,42.805,6.029,CST-1368DR,11244,15434,15541,0.019,551
2017-09-29T16:54:18,42.805,6.029,CST-1368DR,11244,15437,15545,0.018,551
2017-09-29T16:57:23,42.805,6.029,CST-1368DR,11244,15437,15544,0.018,550
2017-09-29T17:00:28,42.805,6.029,CST-1368DR,11244,15436,15543,0.019,551
2017-09-29T17:03:33,42.805,6.029,CST-1368DR,11244,15435,15542,0.019,551
2017-09-29T17:06:38,42.805,6.029,CST-1368DR,11245,15436,15542,0.019,550
2017-09-29T17:09:43,42.805,6.029,CST-1368DR,11244,15434,15542,0.019,551
2017-09-29T17:12:48,42.805,6.029,CST-1368DR,11244,15438,15545,0.018,551
2017-09-29T17:15:53,42.805,6.029,CST-1368DR,11244,15437,15545,0.018,551
2017-09-29T17:18:58,42.805,6.029,CST-1368DR,11244,15438,15546,0.018,551
2017-09-29T17:22:03,42.805,6.029,CST-1368DR,11244,15436,15543,0.019,550
2017-09-29T17:25:07,42.805,6.029,CST-1368DR,11244,15435,15543,0.019,550
2017-09-29T17:28:12,42.805,6.029,CST-1368DR,11244,15437,15545,0.018,550
2017-09-29T17:31:17,42.805,6.029,CST-1368DR,11244,15437,15545,0.018,551
2017-09-29T17:34:22,42.805,6.029,CST-1368DR,11245,15434,15540,0.020,550
2017-09-29T17:37:27,42.805,6.029,CST-1368DR,11244,15437,15545,0.018,551
2017-09-29T17:40:32,42.805,6.029,CST-1368DR,11245,15437,15543,0.019,551
2017-09-29T17:43:37,42.805,6.029,CST-1368DR,11245,15426,15532,0.022,551
2017-09-29T17:46:42,42.805,6.029,CST-1368DR,11245,15436,15542,0.019,550
2017-09-29T17:49:47,42.805,6.029,CST-1368DR,11245,15438,15545,0.018,550
2017-09-29T17:52:51,42.805,6.029,CST-1368DR,11245,15432,15538,0.020,551
2017-09-29T17:55:56,42.805,6.029,CST-1368DR,11245,15437,15543,0.019,551
2017-09-29T17:59:01,42.805,6.029,CST-1368DR,11245,15437,15543,0.019,551
2017-09-29T18:02:06,42.805,6.029,CST-1368DR,11245,15436,15543,0.019,551
2017-09-29T18:05:11,42.805,6.029,CST-1368DR,11245,15437,15544,0.018,551
2017-09-29T18:08:16,42.805,6.029,CST-1368DR,11245,15437,15543,0.019,551
2017-09-29T18:11:21,42.805,6.029,CST-1368DR,11245,15436,15542,0.019,551
2017-09-29T18:14:26,42.805,6.029,CST-1368DR,11245,15435,15541,0.019,551
2017-09-29T18:17:31,42.805,6.029,CST-1368DR,11245,15438,15544,0.018,551
2017-09-29T18:20:35,42.805,6.029,CST-1368DR,11245,15435,15541,0.019,551
2017-09-29T18:23:40,42.805,6.029,CST-1368DR,11246,15438,15543,0.019,550
2017-09-29T18:26:45,42.805,6.029,CST-1368DR,11245,15438,15544,0.018,551
2017-09-29T18:29:50,42.805,6.029,CST-1368DR,11245,15438,15544,0.018,550
2017-09-29T18:32:55,42.805,6.029,CST-1368DR,11246,15436,15541,0.019,551
2017-09-29T18:36:00,42.805,6.029,CST-1368DR,11245,15436,15542,0.019,551
2017-09-29T18:39:05,42.805,6.029,CST-1368DR,11245,15439,15545,0.018,551
2017-09-29T18:42:10,42.805,6.029,CST-1368DR,11245,15437,15544,0.018,551
2017-09-29T18:45:15,42.805,6.029,CST-1368DR,11245,15438,15544,0.018,551
2017-09-29T18:48:19,42.805,6.029,CST-1368DR,11245,15434,15540,0.020,551
2017-09-29T18:51:24,42.805,6.029,CST-1368DR,11245,15437,15543,0.019,551
2017-09-29T18:54:29,42.805,6.029,CST-1368DR,11246,15434,15539,0.020,551
2017-09-29T18:57:34,42.805,6.029,CST-1368DR,11246,15432,15537,0.020,551
2017-09-29T19:00:39,42.805,6.029,CST-1368DR,11246,15435,15540,0.020,551
2017-09-29T19:03:44,42.805,6.029,CST-1368DR,11245,15438,15544,0.018,551
2017-09-29T19:06:49,42.805,6.029,CST-1368DR,11246,15438,15543,0.019,551
2017-09-29T19:09:54,42.805,6.029,CST-1368DR,11246,15433,15538,0.020,550
2017-09-29T19:12:59,42.805,6.029,CST-1368DR,11246,15433,15537,0.020,551
2017-09-29T19:16:04,42.805,6.029,CST-1368DR,11246,15436,15541,0.019,550
2017-09-29T19:19:08,42.805,6.029,CST-1368DR,11246,15436,15541,0.019,551
2017-09-29T19:22:13,42.805,6.029,CST-1368DR,11246,15438,15543,0.019,551
2017-09-29T19:25:18,42.805,6.029,CST-1368DR,11246,15439,15544,0.018,551
2017-09-29T19:28:23,42.805,6.029,CST-1368DR,11246,15436,15541,0.019,551
2017-09-29T19:31:28,42.805,6.029,CST-1368DR,11246,15434,15538,0.020,550
2017-09-29T19:34:33,42.805,6.029,CST-1368DR,11246,15441,15546,0.018,551
2017-09-29T19:37:38,42.805,6.029,CST-1368DR,11246,15436,15541,0.019,551
2017-09-29T19:40:43,42.805,6.029,CST-1368DR,11246,15438,15543,0.019,551
2017-09-29T19:43:48,42.805,6.029,CST-1368DR,11246,15440,15545,0.018,551
2017-09-29T19:46:52,42.805,6.029,CST-1368DR,11246,15436,15541,0.019,551
2017-09-29T19:49:57,42.805,6.029,CST-1368DR,11246,15438,15543,0.019,551
2017-09-29T19:53:02,42.805,6.029,CST-1368DR,11246,15439,15544,0.018,550
2017-09-29T19:56:07,42.805,6.029,CST-1368DR,11246,15439,15544,0.018,551
2017-09-29T19:59:12,42.805,6.029,CST-1368DR,11246,15439,15544,0.018,551
2017-09-29T20:02:17,42.805,6.029,CST-1368DR,11246,15436,15541,0.019,551
2017-09-29T20:05:22,42.805,6.029,CST-1368DR,11246,15434,15539,0.020,551
2017-09-29T20:08:27,42.805,6.029,CST-1368DR,11246,15436,15541,0.019,551
2017-09-29T20:11:32,42.805,6.029,CST-1368DR,11246,15439,15544,0.018,551
2017-09-29T20:14:36,42.805,6.029,CST-1368DR,11246,15436,15541,0.019,551
2017-09-29T20:17:41,42.805,6.029,CST-1368DR,11246,15437,15542,0.019,550
2017-09-29T20:20:46,42.805,6.029,CST-1368DR,11246,15429,15534,0.021,550
2017-09-29T20:23:51,42.805,6.029,CST-1368DR,11246,15439,15544,0.018,551
2017-09-29T20:26:56,42.805,6.029,CST-1368DR,11246,15441,15546,0.018,551
2017-09-29T20:30:01,42.805,6.029,CST-1368DR,11247,15440,15544,0.018,551
2017-09-29T20:33:06,42.805,6.029,CST-1368DR,11246,15436,15541,0.019,551
2017-09-29T20:36:11,42.805,6.029,CST-1368DR,11246,15440,15545,0.018,550
2017-09-29T20:39:16,42.805,6.029,CST-1368DR,11246,15438,15543,0.019,551
2017-09-29T20:42:21,42.805,6.029,CST-1368DR,11246,15426,15531,0.022,551
2017-09-29T20:45:25,42.805,6.029,CST-1368DR,11247,15438,15541,0.019,551
2017-09-29T20:48:30,42.805,6.029,CST-1368DR,11246,15438,15543,0.019,551
2017-09-29T20:51:35,42.805,6.029,CST-1368DR,11246,15436,15541,0.019,551
2017-09-29T20:54:40,42.805,6.029,CST-1368DR,11246,15440,15545,0.018,551
2017-09-29T20:57:45,42.805,6.029,CST-1368DR,11247,15434,15538,0.020,550
2017-09-29T21:00:50,42.805,6.029,CST-1368DR,11247,15439,15543,0.019,551
2017-09-29T21:03:55,42.805,6.029,CST-1368DR,11247,15439,15543,0.019,551
2017-09-29T21:07:00,42.805,6.029,CST-1368DR,11246,15440,15545,0.018,551
2017-09-29T21:10:05,42.805,6.029,CST-1368DR,11247,15434,15538,0.020,550
2017-09-29T21:13:09,42.805,6.029,CST-1368DR,11247,15435,15539,0.020,551
2017-09-29T21:16:14,42.805,6.029,CST-1368DR,11247,15438,15542,0.019,551
2017-09-29T21:19:19,42.805,6.029,CST-1368DR,11247,15437,15541,0.019,550
2017-09-29T21:22:24,42.805,6.029,CST-1368DR,11247,15432,15535,0.021,551
2017-09-29T21:25:29,42.805,6.029,CST-1368DR,11247,15439,15542,0.019,551
2017-09-29T21:28:34,42.805,6.029,CST-1368DR,11247,15436,15540,0.020,550
2017-09-29T21:31:39,42.805,6.029,CST-1368DR,11247,15438,15542,0.019,551
2017-09-29T21:34:44,42.805,6.029,CST-1368DR,11247,15433,15537,0.020,551
2017-09-29T21:37:49,42.805,6.029,CST-1368DR,11247,15435,15539,0.020,551
2017-09-29T21:40:53,42.805,6.029,CST-1368DR,11247,15437,15541,0.019,551
2017-09-29T21:43:58,42.805,6.029,CST-1368DR,11247,15439,15543,0.019,551
2017-09-29T21:47:03,42.805,6.029,CST-1368DR,11247,15440,15544,0.018,551
2017-09-29T21:50:08,42.805,6.029,CST-1368DR,11247,15436,15540,0.020,551
2017-09-29T21:53:13,42.805,6.029,CST-1368DR,11247,15438,15542,0.019,551
2017-09-29T21:56:18,42.805,6.029,CST-1368DR,11247,15434,15538,0.020,551
2017-09-29T21:59:23,42.805,6.029,CST-1368DR,11247,15438,15542,0.019,551
2017-09-29T22:02:28,42.805,6.029,CST-1368DR,11247,15441,15544,0.018,551
2017-09-29T22:05:33,42.805,6.029,CST-1368DR,11247,15440,15544,0.018,551
2017-09-29T22:08:37,42.805,6.029,CST-1368DR,11247,15440,15544,0.018,551
2017-09-29T22:11:42,42.805,6.029,CST-1368DR,11247,15441,15544,0.018,551
2017-09-29T22:14:47,42.805,6.029,CST-1368DR,11247,15437,15541,0.019,551
2017-09-29T22:17:52,42.805,6.029,CST-1368DR,11247,15437,15541,0.019,551
2017-09-29T22:20:57,42.805,6.029,CST-1368DR,11247,15441,15545,0.018,551
2017-09-29T22:24:02,42.805,6.029,CST-1368DR,11247,15441,15544,0.018,551
2017-09-29T22:27:07,42.805,6.029,CST-1368DR,11247,15440,15544,0.018,551
2017-09-29T22:30:12,42.805,6.029,CST-1368DR,11247,15439,15542,0.019,551
2017-09-29T22:33:17,42.805,6.029,CST-1368DR,11247,15440,15544,0.018,551
2017-09-29T22:36:21,42.805,6.029,CST-1368DR,11247,15440,15544,0.018,551
2017-09-29T22:39:26,42.805,6.029,CST-1368DR,11247,15440,15543,0.019,551
2017-09-29T22:42:31,42.805,6.029,CST-1368DR,11247,15439,15543,0.019,551
2017-09-29T22:45:36,42.805,6.029,CST-1368DR,11247,15441,15545,0.018,551
2017-09-29T22:48:41,42.805,6.029,CST-1368DR,11247,15442,15546,0.018,551
2017-09-29T22:51:46,42.805,6.029,CST-1368DR,11247,15441,15545,0.018,551
2017-09-29T22:54:51,42.805,6.029,CST-1368DR,11247,15441,15545,0.018,551
2017-09-29T22:57:56,42.805,6.029,CST-1368DR,11247,15441,15545,0.018,551
2017-09-29T23:01:01,42.805,6.029,CST-1368DR,11247,15442,15545,0.018,551
2017-09-29T23:04:06,42.805,6.029,CST-1368DR,11248,15442,15545,0.018,551
2017-09-29T23:07:10,42.805,6.029,CST-1368DR,11247,15440,15544,0.018,551
2017-09-29T23:10:15,42.805,6.029,CST-1368DR,11247,15440,15544,0.018,551
2017-09-29T23:13:20,42.805,6.029,CST-1368DR,11248,15441,15543,0.019,551
2017-09-29T23:16:25,42.805,6.029,CST-1368DR,11248,15441,15543,0.019,551
2017-09-29T23:19:30,42.805,6.029,CST-1368DR,11248,15440,15542,0.019,551
2017-09-29T23:22:35,42.805,6.029,CST-1368DR,11248,15440,15542,0.019,551
2017-09-29T23:25:40,42.805,6.029,CST-1368DR,11248,15439,15542,0.019,551
2017-09-29T23:28:45,42.805,6.029,CST-1368DR,11247,15439,15543,0.019,551
2017-09-29T23:31:50,42.805,6.029,CST-1368DR,11248,15440,15543,0.019,551
2017-09-29T23:34:54,42.805,6.029,CST-1368DR,11248,15439,15542,0.019,551
2017-09-29T23:37:59,42.805,6.029,CST-1368DR,11248,15438,15541,0.019,551
2017-09-29T23:41:04,42.805,6.029,CST-1368DR,11248,15439,15542,0.019,551
2017-09-29T23:44:09,42.805,6.029,CST-1368DR,11248,15440,15542,0.019,550
2017-09-29T23:47:14,42.805,6.029,CST-1368DR,11248,15439,15542,0.019,551
2017-09-29T23:50:19,42.805,6.029,CST-1368DR,11248,15436,15539,0.020,551
2017-09-29T23:53:24,42.805,6.029,CST-1368DR,11248,15441,15543,0.019,551
2017-09-29T23:56:29,42.805,6.029,CST-1368DR,11248,15441,15544,0.018,551
2017-09-29T23:59:34,42.805,6.029,CST-1368DR,11248,15439,15542,0.019,551
